Regional Weather Roundup
Issued by NWS Glasgow, MT

Home | Current Version | Previous Version | Text Only | Print | Product List | Glossary On
Versions: 1 2 3 4 5 6 7 8 9 10 11 12 13 14 15 16 17 18 19 20 21 22 23 24 25 26 27 28 29 30 31 32 33 34 35 36 37 38 39 40 41 42 43 44 45 46 47 48 49 50
000
ASUS45 KGGW 130815
RWRGGW
HOURLY REGIONAL WEATHER ROUNDUP FOR NORTHEAST MONTANA
NATIONAL WEATHER SERVICE GLASGOW MONTANA
100 AM MST SAT FEB 13 2016

NOTE: "FAIR" INDICATES FEW OR NO CLOUDS BELOW 12,000 FEET WITH NO
SIGNIFICANT WEATHER AND/OR OBSTRUCTIONS TO VISISBILITY.

NORTHEAST MONTANA


CITY           SKY/WX    TMP DP  RH WIND       PRES   REMARKS
GLASGOW        CLOUDY    17  13  84 E20       30.04F
PLENTYWOOD       N/A     12  10  92 SE10        N/A  WCI  -1
WOLF POINT     CLOUDY    20  15  81 E14       30.12F
JORDAN           N/A     29  27  92 SE9       30.01F
WINNETT          N/A     33  32  96 CALM        N/A
SIDNEY         CLOUDY    18  12  79 SE10      30.21F
GLENDIVE       CLOUDY    21  18  86 SE9       30.14F
MALTA            N/A     23  22  96 E6          N/A
SCOBEY           N/A     12   1  62 E15       30.09F HAZE    WCI  -4

FORT PECK REPORTS


CITY           SKY/WX    TMP DP  RH WIND       PRES   REMARKS
FORT PECK        N/A     21  20  96 E20         N/A
THE PINES        N/A     27  24  89 E5          N/A

SOUTHEAST MONTANA


CITY           SKY/WX    TMP DP  RH WIND       PRES   REMARKS
BILLINGS       CLOUDY    32  29  88 CALM      29.99F
MILES CITY     CLOUDY    29  24  82 SE13      30.05F
BAKER          CLOUDY    20  15  81 SE23G32   30.12F
LIVINGSTON     CLOUDY    49  18  29 SW26G41   29.99S

CENTRAL MONTANA


CITY           SKY/WX    TMP DP  RH WIND       PRES   REMARKS
HAVRE          CLOUDY    22  21  96 CALM      29.96F
LEWISTOWN      CLOUDY    42  32  67 SW13      29.95F
GREAT FALLS    CLEAR     41  32  70 SW14      29.92F
CUT BANK       CLEAR     30  27  88 E5        29.87F
HELENA         CLOUDY    33  30  88 CALM      30.00F
BUTTE          CLOUDY    29  25  85 E5        30.04F
BOZEMAN        CLOUDY    33  30  88 S7        30.04F

WESTERN MONTANA


CITY           SKY/WX    TMP DP  RH WIND       PRES   REMARKS
MISSOULA       FOG       32  31  96 W5        30.03S VSB 1/4
KALISPELL      NOT AVBL

NORTH DAKOTA


CITY           SKY/WX    TMP DP  RH WIND       PRES   REMARKS
WILLISTON      FLURRIES  13   7  77 SE10      30.25F WCI   0
DICKINSON      LGT SNOW  11   6  81 SE21G29   30.19F WCI  -8
MINOT          CLOUDY     7  -4  60 SE12      30.40F WCI  -8
BISMARCK       CLOUDY     8  -3  61 SE13      30.45F WCI  -8

SOUTHERN SASKATCHEWAN


CITY           SKY/WX    TMP DP  RH WIND       PRES   REMARKS
REGINA         FLURRIES   9   1  72 SE23G31   30.19F WCI -12
ESTEVAN        NOT AVBL
SWIFT CURRENT  CLOUDY    18  16  93 S23G31    29.92F




USA.gov is the U.S. government's official web portal to all federal, state and local government web resources and services.